When you browse on this site, cookies collect data to enhance your experience and personalize the content and advertising you see.
Visit our Privacy Policy to learn more. By continuing to use the site, you agree to this use of cookies and data.

Hourly Weather Nilo

Today, 7 August, Friday

Time Temperature Precipitation Wind Pressure Humidity
00:00 +27°C° 0 mm 1 mps 728 mmHg 62%
01:00 +27°C° 0 mm 1 mps 728 mmHg 63%
02:00 +26°C° 0 mm 1 mps 728 mmHg 64%
03:00 +26°C° 0 mm 1 mps 727 mmHg 64%
04:00 +26°C° 0 mm 1 mps 727 mmHg 65%
05:00 +26°C° 0 mm 1 mps 727 mmHg 65%
06:00 +27°C° 0 mm 1 mps 728 mmHg 66%
07:00 +27°C° 0 mm 1 mps 728 mmHg 66%
08:00 +28°C° 0 mm 1 mps 728 mmHg 62%
09:00 +30°C° 0 mm 1 mps 729 mmHg 58%
10:00 +31°C° 0 mm 2 mps 729 mmHg 54%
11:00 +32°C° 0.2 mm 2 mps 728 mmHg 53%
12:00 +34°C° 0.2 mm 3 mps 728 mmHg 51%
13:00 +35°C° 0.2 mm 3 mps 727 mmHg 49%
14:00 +35°C° 0.2 mm 3 mps 727 mmHg 51%
15:00 +34°C° 0.2 mm 3 mps 726 mmHg 52%
16:00 +34°C° 0.2 mm 3 mps 725 mmHg 53%
17:00 +31°C° 0.1 mm 3 mps 726 mmHg 57%
18:00 +30°C° 0.1 mm 2 mps 726 mmHg 61%
19:00 +28°C° 0.1 mm 2 mps 727 mmHg 65%
20:00 +28°C° 0 mm 1 mps 728 mmHg 66%
21:00 +28°C° 0 mm 1 mps 728 mmHg 67%
22:00 +27°C° 0 mm 1 mps 729 mmHg 68%
23:00 +27°C° 0 mm 1 mps 729 mmHg 68%

Tomorrow, 8 August, Saturday

Time Temperature Precipitation Wind Pressure Humidity
00:00 +27°C° 0 mm 1 mps 728 mmHg 68%
01:00 +26°C° 0 mm 1 mps 728 mmHg 69%
02:00 +26°C° 0 mm 1 mps 728 mmHg 69%
03:00 +26°C° 0 mm 1 mps 728 mmHg 70%
04:00 +26°C° 0 mm 1 mps 727 mmHg 71%
05:00 +26°C° 0 mm 1 mps 728 mmHg 71%
06:00 +24°C° 0 mm 0 mps 728 mmHg 71%
07:00 +25°C° 0 mm 0 mps 728 mmHg 72%
08:00 +28°C° 0.1 mm 1 mps 729 mmHg 68%
09:00 +30°C° 0.1 mm 2 mps 729 mmHg 64%
10:00 +31°C° 0.1 mm 2 mps 730 mmHg 60%
11:00 +33°C° 0.4 mm 3 mps 729 mmHg 58%
12:00 +33°C° 0.4 mm 3 mps 728 mmHg 57%
13:00 +34°C° 0.4 mm 3 mps 728 mmHg 55%
14:00 +34°C° 0.4 mm 3 mps 727 mmHg 56%
15:00 +32°C° 0.4 mm 2 mps 726 mmHg 57%
16:00 +32°C° 0.4 mm 2 mps 726 mmHg 58%
17:00 +31°C° 0.1 mm 2 mps 726 mmHg 60%
18:00 +30°C° 0.1 mm 2 mps 727 mmHg 62%
19:00 +29°C° 0.1 mm 2 mps 727 mmHg 64%
20:00 +28°C° 0 mm 1 mps 728 mmHg 65%
21:00 +28°C° 0 mm 1 mps 728 mmHg 66%
22:00 +27°C° 0 mm 1 mps 729 mmHg 67%
23:00 +27°C° 0 mm 1 mps 729 mmHg 67%

Day after tomorrow, 9 August, Sunday

Time Temperature Precipitation Wind Pressure Humidity
00:00 +26°C° 0 mm 1 mps 728 mmHg 68%
01:00 +26°C° 0 mm 1 mps 728 mmHg 69%
02:00 +25°C° 0 mm 1 mps 728 mmHg 69%
03:00 +25°C° 0 mm 1 mps 727 mmHg 69%
04:00 +25°C° 0 mm 1 mps 727 mmHg 70%
05:00 +25°C° 0 mm 1 mps 728 mmHg 69%
06:00 +24°C° 0 mm 0 mps 728 mmHg 69%
07:00 +24°C° 0 mm 0 mps 728 mmHg 69%
08:00 +28°C° 0 mm 1 mps 729 mmHg 64%
09:00 +30°C° 0 mm 1 mps 729 mmHg 59%
10:00 +32°C° 0 mm 2 mps 729 mmHg 54%
11:00 +32°C° 0.2 mm 2 mps 728 mmHg 52%
12:00 +34°C° 0.2 mm 2 mps 728 mmHg 50%
13:00 +35°C° 0.2 mm 3 mps 727 mmHg 48%
14:00 +35°C° 0.2 mm 2 mps 726 mmHg 49%
15:00 +35°C° 0.2 mm 2 mps 726 mmHg 49%
16:00 +35°C° 0.2 mm 2 mps 725 mmHg 50%
17:00 +34°C° 0.1 mm 2 mps 725 mmHg 53%
18:00 +31°C° 0.1 mm 2 mps 726 mmHg 57%
19:00 +30°C° 0.1 mm 2 mps 726 mmHg 60%
20:00 +29°C° 0 mm 2 mps 727 mmHg 60%
21:00 +28°C° 0 mm 2 mps 727 mmHg 60%
22:00 +28°C° 0 mm 2 mps 728 mmHg 60%
23:00 +27°C° 0 mm 1 mps 728 mmHg 60%

10 August, Monday

Time Temperature Precipitation Wind Pressure Humidity
00:00 +27°C° 0 mm 1 mps 727 mmHg 61%
01:00 +26°C° 0 mm 1 mps 727 mmHg 62%
02:00 +26°C° 0 mm 1 mps 727 mmHg 62%
03:00 +26°C° 0 mm 1 mps 726 mmHg 63%
04:00 +25°C° 0 mm 1 mps 726 mmHg 63%
05:00 +26°C° 0 mm 1 mps 727 mmHg 64%
06:00 +26°C° 0 mm 1 mps 727 mmHg 64%
07:00 +25°C° 0 mm 0 mps 727 mmHg 64%
08:00 +29°C° 0 mm 1 mps 727 mmHg 60%
09:00 +30°C° 0 mm 1 mps 728 mmHg 55%
10:00 +32°C° 0 mm 2 mps 728 mmHg 51%
11:00 +34°C° 0 mm 2 mps 727 mmHg 48%
12:00 +35°C° 0 mm 2 mps 726 mmHg 46%
13:00 +36°C° 0 mm 2 mps 725 mmHg 43%
14:00 +36°C° 0.1 mm 2 mps 724 mmHg 43%
15:00 +37°C° 0.1 mm 2 mps 724 mmHg 43%
16:00 +36°C° 0.1 mm 1 mps 723 mmHg 42%
17:00 +34°C° 0 mm 1 mps 724 mmHg 47%
18:00 +32°C° 0 mm 2 mps 724 mmHg 52%
19:00 +30°C° 0 mm 2 mps 725 mmHg 57%
20:00 +30°C° 0 mm 2 mps 725 mmHg 57%
21:00 +29°C° 0 mm 2 mps 726 mmHg 57%
22:00 +29°C° 0 mm 2 mps 727 mmHg 57%
23:00 +28°C° 0 mm 1 mps 726 mmHg 59%

11 August, Tuesday

Time Temperature Precipitation Wind Pressure Humidity
00:00 +28°C° 0 mm 1 mps 726 mmHg 61%
01:00 +27°C° 0 mm 1 mps 726 mmHg 62%
02:00 +27°C° 0 mm 1 mps 726 mmHg 64%
03:00 +26°C° 0 mm 1 mps 725 mmHg 66%
04:00 +26°C° 0 mm 1 mps 725 mmHg 68%
05:00 +26°C° 0 mm 1 mps 725 mmHg 68%
06:00 +25°C° 0 mm 0 mps 726 mmHg 69%
07:00 +25°C° 0 mm 0 mps 726 mmHg 69%
08:00 +29°C° 0 mm 1 mps 726 mmHg 63%
09:00 +31°C° 0 mm 1 mps 726 mmHg 58%
10:00 +32°C° 0 mm 2 mps 726 mmHg 53%
11:00 +34°C° 0.1 mm 2 mps 725 mmHg 50%
12:00 +36°C° 0.1 mm 2 mps 725 mmHg 47%
13:00 +37°C° 0.1 mm 2 mps 724 mmHg 44%
14:00 +37°C° 0.1 mm 2 mps 723 mmHg 43%
15:00 +36°C° 0.1 mm 1 mps 723 mmHg 43%
16:00 +36°C° 0.1 mm 1 mps 722 mmHg 42%
17:00 +34°C° 0.1 mm 1 mps 723 mmHg 47%
18:00 +34°C° 0.1 mm 2 mps 723 mmHg 51%
19:00 +31°C° 0.1 mm 2 mps 724 mmHg 56%
20:00 +31°C° 0 mm 2 mps 725 mmHg 56%
21:00 +30°C° 0 mm 2 mps 725 mmHg 56%
22:00 +30°C° 0 mm 2 mps 726 mmHg 56%
23:00 +29°C° 0.5 mm 1 mps 726 mmHg 62%

12 August, Wednesday

Time Temperature Precipitation Wind Pressure Humidity
00:00 +28°C° 0.5 mm 1 mps 725 mmHg 67%
01:00 +27°C° 0.5 mm 1 mps 725 mmHg 73%
02:00 +27°C° 0.4 mm 1 mps 725 mmHg 75%
03:00 +27°C° 0.4 mm 1 mps 725 mmHg 78%
04:00 +26°C° 0.4 mm 1 mps 725 mmHg 80%
05:00 +26°C° 0.3 mm 1 mps 725 mmHg 81%
06:00 +25°C° 0.3 mm 0 mps 725 mmHg 81%
07:00 +25°C° 0.3 mm 0 mps 726 mmHg 81%
08:00 +26°C° 0.3 mm 0 mps 726 mmHg 77%
09:00 +29°C° 0.3 mm 1 mps 726 mmHg 73%
10:00 +31°C° 0.3 mm 1 mps 726 mmHg 69%
11:00 +32°C° 0.3 mm 1 mps 726 mmHg 65%
12:00 +34°C° 0.3 mm 2 mps 725 mmHg 60%
13:00 +35°C° 0.3 mm 2 mps 724 mmHg 56%
14:00 +34°C° 0.4 mm 2 mps 723 mmHg 58%
15:00 +33°C° 0.4 mm 1 mps 723 mmHg 60%
16:00 +32°C° 0.4 mm 1 mps 722 mmHg 62%
17:00 +31°C° 0.4 mm 1 mps 723 mmHg 64%
18:00 +31°C° 0.5 mm 1 mps 723 mmHg 65%
19:00 +30°C° 0.4 mm 1 mps 724 mmHg 67%
20:00 +29°C° 0.2 mm 1 mps 725 mmHg 69%
21:00 +29°C° 0.2 mm 1 mps 725 mmHg 70%
22:00 +28°C° 0.2 mm 1 mps 726 mmHg 72%
23:00 +28°C° 0.1 mm 1 mps 725 mmHg 73%
Show more